Showing default

GEESAT 2-02, 58906

Orbit data source: Space-Track

GEESAT 2-02, 58906 is a payload satellite owned by GeeSpace (CN) in LEO that was launched on Fri, 02 Feb 2024 UTC via a CHANG ZHENG 2C launch vehicle from the Xichang Space Center, China (XSC). Payload-class satellites include a variety of spacecraft equipped with specific instruments for various scientific and technological missions. These include communications satellites like Starlink; space stations such as the ISS; scientific satellites like the Hubble; Earth observation satellites from companies like Planet Labs, Umbra, and HawkEye 360; GPS; miniature CubeSats for education and research; and military/defense satellites.

Loading next visibility...
Identifier
58906, 2024-023B
Orbit
LEO
Last TLE update
7 hours ago
Origin
Manufacturer
Taizhou Xingkong
Mission
Operational Commercial Navigation
Bus & Motor
GEESAT1, Unknown motor
Mass
130 kg wet, 130 kg dry
Launch date (UTC)
2024-02-02 (1 year ago)
Launch vehicle
CHANG ZHENG 2C
Launch site
Xichang Space Center, China (XSC)
Object type
Payload
Rocket body
Debris
Shape & HBR
Box + 2 Pan, 2 m
Radar Cross Section
0.833 m², Medium (>0.1 m² and < 1m²)

Expand to show TLE details & history

TLE from 7 hours ago
0 GEESAT 2-02
1 58906U 24023B   25184.19130094  .00002172  00000-0  22775-3 0  9994
2 58906  49.9969 176.8749 0005298 276.4546  83.5793 14.93395281 77022
Epoch: 2025-07-03T04:35Z
TLE epoch observation values (Epoch: 2025-07-03T04:35:28.401Z)
Latitude
-0.00001°
Longitude
-173.45504°
Altitude
587.493 km
Speed
7.568 km/s
True Right ascension
11h 47m 29s
True Declination
0° 00' 00"
Sunlit
Object was in daylight at epoch
Visualization orbit readout
Latitude
-5.36453°
Longitude
9.6165°
Altitude
588.8 km
Speed
7.567 km/s
Apparent Right ascension
00h 51m 47s
Apparent Declination
-65° 51' 06"
Sunlit
Object is in daylight
Visualization observer readout
Local Sidereal Time
23:37:28
Azimuth
172.177° S
Elevation
-16.744°
Doppler factor
1
Orbital elements
Apogee altitude
591.811 km
Perigee altitude
584.429 km
Semi-major axis
6,966.257 km
Eccentricity
0.00053
Inclination
49.9969°
RAAN
176.8749°
Arg. of periapsis
276.4546°
True anomaly
Unknown
Mean anomaly
83.5793°
Eccentric anomaly
Unknown
Mean motion
3.73288 °/min
Orbital period
96.44 mins
BSTAR
0.00022775
Loading maneuver chart data...
Loading SW <> Apogee altitude chart data...
Loading historical data...
Loading historical data...
Loading historical data...
Loading historical data...
Loading historical data...
Loading historical data...
Loading historical data...

GEESAT 2-02 Visibility forecast

Observer location: undefined°, undefined°

Span
Click to sort rows by Start time (UTC) header in descending order
Start Az.
Max El. time (UTC)
Max El. Az.
Max El.
End time (UTC)
End Az.
6 mins2025-07-04 01:37:55.006Z193.235° SSW2025-07-04 01:40:55.006Z136.346° SSE28.339°2025-07-04 01:43:55.006Z78.769° E
6 mins2025-07-04 03:18:55.006Z265.778° W2025-07-04 03:21:55.006Z351.625° N36.333°2025-07-04 03:24:55.006Z44.868° NE
5 mins2025-07-04 05:00:55.006Z315.029° NNW2025-07-04 05:02:55.006Z351.277° N21.02°2025-07-04 05:05:55.006Z40.573° NE
5 mins2025-07-04 06:42:55.006Z336.532° NNW2025-07-04 06:44:55.006Z17.999° NNE23.537°2025-07-04 06:47:55.006Z67.193° ENE
7 mins2025-07-04 08:22:55.006Z308.61° NW2025-07-04 08:25:55.006Z25.377° NE44.106°2025-07-04 08:29:55.006Z118.627° SE
4 mins2025-07-04 10:04:55.006Z252.292° W2025-07-04 10:05:55.006Z235.061° WSW17.855°2025-07-04 10:08:55.006Z187.745° SSW
|